Location: Rooftop Observatory
(39.0308°N, 87.1711°W)
Time: 08:07:11
(UTC-05:00)

Daily predictions for brighter satellites

Satellite Brightness Start Highest point End
(mag) Time Altitude Azimuth Time Altitude Azimuth Time Altitude Azimuth
CENTAUR R/B 4.0 20:21:43 10° NW 20:29:20 50° WSW 20:37:16 10° S
Cosmos 1452 Rocket 3.5 20:27:35 10° S 20:32:46 63° ESE 20:38:00 10° NNE
Cosmos 1190 Rocket 4.2 20:30:34 10° NNW 20:35:47 78° WSW 20:40:58 10° SSE
Cosmos 1184 Rocket 3.9 20:34:56 10° SSE 20:37:44 25° E 20:40:34 10° NE
SL-08 ROCKET BODY 4.5 20:31:56 10° S 20:37:57 87° W 20:43:53 10° N
Cosmos 1674 Rocket 3.6 20:35:57 10° N 20:40:25 85° E 20:44:50 10° S
Cosmos 2297 4.4 20:39:11 10° SSE 20:44:09 32° ESE 20:49:09 10° NE
CZ-2D R/B 4.2 20:41:34 10° S 20:45:15 49° W 20:48:59 10° NNW
H-2A R/B 4.1 20:43:29 10° SW 20:47:24 35° SSE 21:03:54 10° ESE
Okean 2 Rocket 3.8 20:48:26 10° SSE 20:52:24 34° E 20:56:23 10° NNE
BREEZE-M DEB (TANK) 4.2 20:53:12 10° WNW 20:54:34 14° NNW 20:55:51 10° NNE
Cosmos 1606 2.7 20:50:49 10° N 20:54:45 75° E 20:58:39 10° SSE
Cosmos 2084 4.4 20:51:28 10° SW 20:55:12 45° NW 20:58:54 10° NNE
Cosmos 1782 Rocket 3.9 20:52:55 10° SSE 20:57:12 48° E 21:01:30 10° NNE
EO 1 Delta rocket 4.3 20:53:42 10° NNE 20:59:15 51° E 21:03:55 10° S
CZ-4 DEB 3.0 20:56:28 10° S 20:59:37 68° W 21:02:47 10° NNW
Cosmos 1242 Rocket 3.5 20:59:11 10° N 21:02:33 32° ENE 21:04:46 17° SE
USA 186 3.8 21:01:35 10° SSW 21:04:23 28° W 21:07:20 10° NW
Cosmos 1174 4.3 21:02:17 10° NW 21:05:12 38° WSW 21:07:52 11° S
ALOS 3.9 21:01:11 10° SSW 21:05:25 34° W 21:09:41 10° NNW
Cosmos 1862 3.4 21:02:54 10° S 21:06:59 85° W 21:11:05 10° N
Cosmos 676 Rocket 4.3 21:01:56 10° NNW 21:07:07 68° WSW 21:12:18 10° S
Sich 1 Rocket 4.3 21:02:55 10° SSW 21:07:25 58° W 21:11:56 10° N
COS B Rocket 3.0 21:03:51 10° N 21:07:40 63° E 21:10:45 12° S
Cosmos 1954 Rocket 4.0 21:04:22 10° NNW 21:09:35 84° WSW 21:14:41 11° SSE
Nadezhda 3 Rocket 4.0 21:04:39 10° N 21:11:04 86° E 21:17:27 10° S
GPS 2-05 Rocket1 3.3 21:08:08 10° WSW 21:11:46 49° S 21:13:49 22° ESE
OAO 3 Rocket 3.6 21:07:18 10° WSW 21:12:01 44° SSE 21:15:30 17° ESE
YAOGAN 6 3.9 21:10:46 19° ESE 21:12:08 24° ENE 21:15:02 10° NNE
ARGOS 4.4 21:09:05 15° ESE 21:12:09 25° ENE 21:16:25 10° NNE
Lacrosse 5 rocket 2.4 21:09:16 10° S 21:12:19 21° SE 21:15:17 10° ENE
Cosmos 1975 Rocket 3.1 21:08:34 10° N 21:12:51 58° E 21:16:09 16° SSE
DNEPR-1 R/B 3.9 21:07:55 10° NNW 21:13:13 67° NE 21:16:17 20° SE
Cosmos 1408 2.7 21:10:57 10° S 21:14:36 78° W 21:18:15 10° N
PSLV R/B 4.2 21:16:18 24° E 21:17:03 27° ENE 21:19:37 10° NNE
Meteor 1-27 Rocket 4.1 21:14:41 10° NNW 21:20:10 65° W 21:25:36 10° S
Cosmos 1378 Rocket 3.8 21:16:30 10° NNW 21:20:49 70° W 21:25:06 10° S
Cosmos 1023 Rocket 4.4 21:16:36 10° NNW 21:21:45 84° ENE 21:25:37 18° SSE
CZ-4 SHROUD 4.0 21:23:32 29° ESE 21:24:16 33° ENE 21:27:07 10° N
Cosmos 1741 Rocket 4.0 21:22:37 10° NNW 21:27:50 67° ENE 21:31:03 23° SSE
Nimbus 7 Rocket 4.4 21:24:08 10° NNE 21:30:06 83° ESE 21:36:07 10° SSW
MetOp-A 4.2 21:31:18 22° SSE 21:34:46 67° ENE 21:40:05 10° N
Cosmos 1825 3.7 21:34:46 10° SSW 21:38:18 37° W 21:41:52 10° N
Envisat 3.3 21:35:07 14° S 21:39:29 65° WSW 21:44:33 10° NNW
Cosmos 614 Rocket 3.8 21:35:20 10° NNW 21:40:26 80° ENE 21:43:08 28° SSE
SEDSat Delta rocket 3.8 21:37:22 10° SW 21:41:10 28° S 21:41:22 28° S
Cosmos 2341 Rocket 4.5 21:35:22 10° SSW 21:41:35 63° W 21:47:48 10° N
deb Chang Zheng 4 4.3 21:37:37 10° N 21:41:58 57° WNW 21:46:19 10° SSW
Cosmos 1833 Rocket 3.0 21:37:01 10° NNW 21:42:32 52° ENE 21:45:06 29° SE
SL-8 Rocket 3.9 21:38:17 10° S 21:44:33 81° E 21:50:48 10° N
Terra 3.4 21:44:32 18° E 21:45:34 19° ENE 21:48:55 10° NNE
USA 245 3.5 21:46:35 43° ESE 21:47:22 52° ENE 21:51:35 10° N
ERS-1 Rocket 4.3 21:43:54 10° SSW 21:48:29 35° W 21:53:07 10° NNW
ISS -0.2 21:46:55 10° WNW 21:48:59 16° NNW 21:51:04 10° NNE
Cosmos 2278 Rocket 3.8 21:44:12 10° SW 21:49:25 36° WNW 21:54:39 10° N
H-2A R/B 2.8 21:46:49 17° S 21:49:51 47° W 21:53:56 10° NNW
Cosmos 1939 Rocket 4.5 21:50:56 12° SSW 21:54:03 30° W 21:57:33 10° NW
Timation 1 Rocket 4.3 21:50:25 10° S 21:56:19 65° ESE 22:02:17 10° NNE
Abrixas 3.2 21:53:46 10° WSW 21:56:45 52° NNW 21:58:22 23° NE
Cosmos 1140 Rocket 4.3 21:52:26 10° NNW 21:57:20 44° WSW 22:00:42 19° SSW
Cosmos 2151 Rocket 3.5 21:56:55 31° S 21:59:03 84° E 22:03:37 10° N
USA 234 4.5 21:55:15 10° ENE 21:58:06 20° E 21:58:06 20° E
Timation 2 Rocket 4.3 21:54:44 10° NNW 22:00:33 55° WSW 22:04:05 24° S
Meteor 1-25 Rocket 4.3 21:58:34 29° SSE 22:01:32 65° E 22:07:17 10° NNE
Cosmos 1300 Rocket 4.2 22:04:46 37° E 22:04:46 37° E 22:08:42 10° NNE
CZ-4B R/B 3.2 22:01:15 10° NNE 22:06:10 81° ESE 22:08:19 33° S
SPOT 5 3.7 22:02:46 21° S 22:06:12 53° W 22:11:27 10° NNW
Cosmos 2082 Rocket 2.3 22:04:52 10° NNW 22:10:33 73° WSW 22:12:50 37° S
Okean 1 4.0 22:06:58 10° N 22:10:39 41° ENE 22:10:39 41° ENE
Okean 1 Rocket 3.7 22:13:53 39° ENE 22:13:53 39° ENE 22:17:40 10° NNE
Cosmos 864 Rocket 4.4 22:09:39 24° S 22:13:37 88° W 22:19:48 10° N
Cosmos 1812 3.0 22:11:39 10° N 22:15:11 54° ENE 22:15:11 54° ENE
Lacrosse 5 1.7 22:13:19 10° SSW 22:18:22 68° SE 22:23:26 10° NE
H-2A R/B 2.3 22:20:50 47° ESE 22:21:50 54° ENE 22:26:59 10° N
Meteor 1-18 Rocket 4.4 22:20:30 10° NNW 22:26:26 78° W 22:28:36 41° S
Cosmos 2366 rocket 4.3 22:22:11 19° SSW 22:26:49 66° W 22:33:09 10° N
NOAA 11 4.4 22:28:27 41° S 22:30:19 67° WSW 22:35:49 10° NNW
Cosmos 1302 Rocket 3.9 22:32:20 61° ESE 22:32:29 61° ESE 22:37:42 10° NNE
Okean 1-7 Rocket 3.9 22:30:54 10° N 22:34:56 55° ENE 22:34:56 55° ENE
SPOT 1/Viking Rocket 4.3 22:35:56 34° SSW 22:37:39 47° W 22:42:42 10° NNW
Meteor 1-13 Rocket 4.3 22:37:09 10° N 22:43:05 65° ENE 22:43:51 59° ESE
ASTEX 1 3.6 22:39:52 10° NNE 22:44:25 58° ENE 22:44:25 58° ENE
CARTOSAT-1 3.7 22:49:49 70° N 22:49:49 70° N 22:53:40 10° NNW
Iridium 4 Rocket 4.3 22:43:45 10° NNE 22:49:23 44° E 22:49:23 44° E
Lacrosse 5 rocket 2.5 22:47:41 10° WSW 22:51:22 38° NW 22:54:55 10° NNE
ARGOS 4.1 22:50:37 33° SW 22:52:07 40° W 22:57:10 10° NNW
USA 229 DEB 4.3 22:45:37 10° NW 22:52:24 48° WSW 22:54:27 38° SSW
USA 229 4.3 22:45:43 10° NW 22:52:30 49° WSW 22:54:33 39° SSW
Cosmos 2369 Rocket 2.6 22:55:52 47° ENE 22:55:52 47° ENE 23:00:20 10° NNE
OAO 3 Rocket 4.4 22:50:28 10° W 22:53:20 32° WSW 22:53:20 32° WSW
Meteor 1-11 Rocket 3.6 22:56:17 73° SE 22:56:37 76° E 23:02:22 10° NNE
Cosmos 1000 Rocket 4.3 22:55:16 10° N 23:01:34 83° E 23:02:21 70° SSE
Cosmos 2239 Rocket 4.3 23:05:01 71° SSE 23:05:43 82° E 23:12:03 10° N
IGS 5A 4.3 23:09:05 47° NW 23:09:05 47° NW 23:12:16 10° NNW
NOSS 3-1 (A) 4.1 23:03:18 10° NNW 23:10:58 74° NE 23:12:57 54° ESE
Gbstr 26 Del rocket 3.8 23:06:24 10° NW 23:10:03 49° WNW 23:10:03 49° WNW
Cosmos 1503 Rocket 4.2 23:11:39 10° NNW 23:16:23 67° NNE 23:16:23 67° NNE
Cosmos 1400 Rocket 4.2 23:19:55 38° N 23:19:55 38° N 23:22:35 10° N
Cosmos 1943 Rocket 3.7 23:21:41 24° ENE 23:21:41 24° ENE 23:24:19 10° NE
Meteor 1-23 Rocket 4.4 23:13:51 10° N 23:18:55 62° NE 23:18:55 62° NE
Terra 2.7 23:23:26 41° W 23:23:26 41° W 23:27:30 10° NNW
Meteor 1-19 Rocket 4.3 23:19:19 10° NNW 23:25:07 76° W 23:25:07 76° W
Cosmos 1833 Rocket 4.5 23:22:00 10° NW 23:25:59 20° W 23:26:48 20° WSW
Cosmos 1025 Rocket 4.2 23:25:51 10° NNW 23:28:54 43° NNW 23:28:54 43° NNW
ATLAS 2AS CENTAUR R/B 3.8 23:24:11 10° NNW 23:31:52 43° NE 23:34:23 34° E
Meteor 2-16 Rocket 4.3 23:32:56 87° NW 23:32:56 87° NW 23:39:00 10° N
Meteor 2-21 Rocket 4.5 23:33:03 69° WSW 23:33:27 71° W 23:39:40 10° N
NOSS 3-1 (C) 4.1 23:31:48 10° NW 23:39:24 65° WSW 23:40:23 60° SSW
Cosmos 1821 Rocket 4.4 23:42:00 51° WSW 23:42:46 55° W 23:48:51 10° N
Cosmos 1605 Rocket 3.9 23:43:43 86° NNE 23:43:43 86° NNE 23:50:00 10° N
USA 234 3.2 23:37:17 10° NE 23:43:51 82° NW 23:45:22 56° WSW
Cosmos 1934 Rocket 4.2 23:49:38 56° W 23:49:51 57° W 23:55:49 10° N
ALOS 2 4.4 23:56:40 28° NNE 23:56:40 28° NNE 23:59:02 10° N
